Location: Fort Wayne
(41.1310°N, 85.1290°W)
Time: 00:33:59
(UTC-04:00)

Oscar 19 - Visible Passes

Search period start: 27 May 2016 00:00
Search period end: 06 June 2016 00:00
Orbit: 774 x 790 km, 98.5° (Epoch: 26 May)

Date Brightness Start Highest point End Pass type
(mag) Time Alt. Az. Time Alt. Az. Time Alt. Az.
27 May 11.4 02:41:59 10° NNE 02:46:52 41° E 02:47:37 38° ESE visible
27 May 12.0 04:21:48 10° NNW 04:25:56 25° WNW 04:28:11 18° WSW visible
28 May 12.4 02:11:01 10° NE 02:14:51 21° E 02:15:29 20° ESE visible
28 May 11.1 03:49:27 10° N 03:54:23 47° WNW 03:56:03 35° WSW visible
29 May 10.5 03:17:30 10° NNE 03:22:42 89° ESE 03:23:54 54° SSW visible
29 May 12.7 04:59:14 10° NW 05:01:14 12° WNW 05:03:14 10° W visible
30 May 11.3 02:45:55 10° NNE 02:50:51 44° E 02:51:46 40° SE visible
30 May 12.1 04:25:54 10° NNW 04:29:52 23° WNW 04:32:19 16° WSW visible
31 May 12.2 02:14:51 10° NE 02:18:52 23° E 02:19:37 22° ESE visible
31 May 11.2 03:53:29 10° N 03:58:21 43° WNW 04:00:11 31° WSW visible
01 Jun 13.0 01:45:28 10° ENE 01:46:43 11° E 01:47:28 10° E visible
01 Jun 10.5 03:21:29 10° NNE 03:26:40 85° WNW 03:28:02 51° SSW visible
01 Jun 12.8 05:03:40 10° NW 05:05:10 11° WNW 05:06:39 10° WNW visible
02 Jun 11.1 02:49:51 10° NNE 02:54:51 48° E 02:55:53 42° SE visible
02 Jun 12.2 04:30:01 10° NNW 04:33:49 21° WNW 04:36:26 15° W visible
03 Jun 12.1 02:18:42 10° NE 02:22:53 24° E 02:23:44 23° ESE visible
03 Jun 11.4 03:57:32 10° N 04:02:18 40° WNW 04:04:18 28° WSW visible
04 Jun 12.9 01:48:50 10° ENE 01:50:45 12° E 01:51:35 12° E visible
04 Jun 10.6 03:25:29 10° N 03:30:39 78° WNW 03:32:08 47° SSW visible
04 Jun 12.9 05:08:27 10° NW 05:09:04 10° WNW 05:09:42 10° WNW visible
05 Jun 11.0 02:53:48 10° NNE 02:58:50 53° E 02:59:59 44° SE visible
05 Jun 12.3 04:34:07 10° NNW 04:37:45 20° WNW 04:40:33 13° W visible
